sat.trackr.live / text

‹ back to catalog

STARLINK-36901

NORAD 67974 · 2026-038P

PAYLOAD ACTIVE UNKNOWN

§ Identity

Operator
Country
US
Launch date
2026-02-25
Launch site
AFWTR
Launch vehicle
Mass (kg)
RCS (m²)

Purposes: comms

External: N2YO · Heavens-Above · Gunter

§ Orbital elements

Epoch: 2026-09-19T23:24:55.442016Z

Period
93.91 min
Inclination
97.2848°
Eccentricity
0.0001790
Mean motion
15.33449010 rev/d
Perigee alt
464.3 km
Apogee alt
466.8 km
Semi-major
6,843.7 km
B*
4.5292e-4
RAAN
271.3327°
Arg perigee
98.7026°
Mean anomaly
261.4420°
Rev number
3,301

§ Raw data

STARLINK-369011 67974U 26038P   26262.97564169  .00014577  00000+0  45292-3 0  99952 67974  97.2848 271.3327 0001790  98.7026 261.4420 15.33449010 33013

JSON: /api/v1/satellites/67974 · /tle

For live sub-satellite position, see the globe view (requires WebGL).

§ Visibility from observer

Set your observer location to see the next 7 days of passes ≥ 10°. The values pass through the URL so the page stays shareable.

No JS? Fill the form by hand. The geolocation button needs JavaScript.